{"data":{"norad_id":61243,"intl_designator":"2024-175A","name":"STARLINK-11300 [DTC]","alt_names":[],"object_type":"PAYLOAD","status":"ACTIVE","operator":null,"country":"US","launch_date":"2024-09-25","launch_site_code":"AFWTR","launch_vehicle":null,"mission":null,"orbit_class":"UNKNOWN","rcs_meters":null,"size_class":null,"mass_kg":null,"dimensions":null,"purposes":["comms"],"wikipedia_slug":null,"has_3d_model":false,"image_url":null,"decayed_at":null,"tle_current":{"epoch":"2026-05-25T03:22:25.776768Z","epoch_age_seconds":56819,"freshness":"FRESH","line1":"1 61243U 24175A   26145.14057612  .00002872  00000+0  28537-4 0  9996","line2":"2 61243  53.1591  39.4142 0000649 107.4619 252.6469 15.69724131 95379","mean_motion":15.69724131,"eccentricity":6.49e-5,"inclination_deg":53.1591,"raan_deg":39.4142,"arg_perigee_deg":107.4619,"mean_anomaly_deg":252.6469,"bstar":2.8537e-5,"rev_number":9537,"period_min":91.735864382912,"perigee_km":359.24902847717,"apogee_km":360.12359794322,"semimajor_km":6737.8233132102,"source":"CELESTRAK","updated_at":"2026-05-25T13:38:19.363321Z"}}}